SCP
0 0 0 0 0 0 0 0 -0 0 0 0 -0 -0 -0 -0 -0 -0 -0 -0 -0 0 0 0 0 0 0 0 0 0 0 0 0 0 0 0 0 0 0 0 0 0 0 0 0 0 0
0 0 0 0 0 0 0 0 0 -0 -0 0 0 0 -0 -0 -0 -0 -0 -0 -0 -0 0 0 0 0 0 0 0 0 0 0 0 0 0 0 0 0 0 0 0 0 0 0 0 0 0
0 0 0 0 0 0 0 0 0 -0 -0 -0 0 0 -0 -0 -0 -0 -0 -0 -0 -0 -0 -0 -0 0 0 0 0 0 0 0 0 0 0 -0 0 0 0 0 0 0 0 0 0 0 0
0 0 0 0 0 0 0 0 0 0 -0 -0 -0 0 0 -0 -0 -0 -0 -0 -0 0 -0 0 0 0 0 0 0 0 -0 0 0 0 0 0 0 0 0 0 0 0 0 0 0 0 0
0 0 0 0 0 0 0 0 0 -0 -0 -0 -0 0 0 0 -0 -0 -0 0 -0 0 0 0 0 0 0 0 0 -0 -0 0 0 0 0 0 0 0 0 0 0 0 0 0 0 0 0
0 0 0 0 0 0 0 0 0 0 -0 -0 -0 -0 -0 0 -0 -0 -0 -0 0 0 0 0 0 0 0 0 0 0 -0 0 0 0 0 0 0 0 0 0 0 0 0 0 0 0 0
0 0 0 0 0 0 0 0 0 0 0 -0 -0 -0 0 0 0 0 0 0 0 0 0 0 0 0 0 0 0 0 0 0 0 0 0 0 0 0 0 0 0 0 0 0 0 0 0
0 0 0 0 0 0 0 0 0 0 0 0 -0 0 0 0 0 -0 0 0 0 0 0 0 0 0 0 0 0 0 0 0 0 0 0 0 0 0 0 0 0 0 0 0 0 0 0
0 0 0 0 0 0 0 0 0 0 0 0 0 0 0 0 -0 0 0 0 0 0 0 0 0 0 -0 0 0 -0 0 0 0 0 0 0 0 0 0 0 0 0 0 0 0 0 -0
0 0 0 0 0 0 0 0 0 0 0 0 0 0 0 -0 0 0 0 0 0 0 0 0 0 0 0 0 0 0 0 0 0 0 0 0 0 0 0 0 0 0 0 0 0 0 0
0 0 0 0 0 0 0 0 0 0 0 0 0 0 0 -0 0 0 0 0 -0 0 0 0 0 0 0 0 0 0 0 0 0 0 0 0 0 0 0 0 0 0 0 0 0 0 0
0 0 0 0 0 0 0 0 0 0 0 0 0 0 -0 -0 0 0 0 0 0 0 0 0 0 0 0 -0 0 0 0 0 0 0 0 0 0 0 0 0 0 0 0 0 0 0 0
0 0 0 0 0 0 0 0 0 0 0 0 -0 -0 0 0 0 0 0 0 0 0 0 0 0 0 0 -0 -0 -0 0 0 0 0 0 0 0 0 0 0 0 0 0 0 0 0 0
0 0 0 0 0 0 0 0 0 0 0 0 -0 -0 0 0 0 0 0 0 0 0 0 -0 0 -0 0 -0 -0 -0 0 0 0 0 0 0 0 0 0 0 0 0 0 0 0 0 0
0 0 0 0 0 0 0 0 0 0 0 0 0 0 0 -0 0 0 0 0 0 0 0 0 0 0 0 0 0 0 0 0 0 0 0 0 0 0 0 0 0 0 0 0 0 0 0
0 0 0 0 0 0 0 0 0 0 0 0 0 0 0 0 0 0 0 0 0 0 0 0 0 0 0 0 0 0 0 0 0 0 0 0 0 0 0 0 0 0 0 0 0 0 0
0 0 0 0 0 0 0 0 0 0 0 0 0 0 0 0 0 0 0 0 0 0 0 0 0 0 0 0 0 0 0 0 0 0 0 0 0 0 0 0 0 0 0 0 0 0 0
0 0 0 0 0 0 0 0 0 0 0 0 0 0 0 0 0 0 0 0 0 0 0 0 0 0 0 0 0 0 0 0 0 0 0 0 0 0 0 0 0 0 0 0 0 0 0
0 0 0 0 0 0 0 0 0 0 0 0 0 0 0 0 0 0 0 0 0 0 0 0 0 0 0 0 0 0 0 0 0 0 0 0 0 0 0 0 0 0 0 0 0 0 0
0 0 0 0 0 0 0 0 0 0 0 0 0 0 0 0 0 0 0 0 0 0 0 0 0 0 0 0 0 0 0 0 0 0 0 0 0 0 0 0 0 0 0 0 0 0 0
0 0 0 0 0 0 0 0 0 0 0 0 0 0 0 0 0 0 0 0 0 0 0 0 0 0 0 0 0 0 0 0 0 0 0 0 0 0 0 0 0 0 0 0 0 0 0
0 0 0 0 0 0 0 0 0 0 0 0 0 0 0 0 0 0 0 0 0 0 0 0 0 0 0 0 0 0 0 0 0 0 0 0 0 0 0 0 0 0 0 0 0 0 0
0 0 0 0 0 0 0 0 0 0 0 0 0 0 0 0 0 0 0 0 0 0 0 0 0 0 0 0 0 0 0 0 0 0 0 0 0 0 0 0 0 0 0 0 0 0 0
0 0 0 0 0 0 0 0 0 0 0 0 0 0 0 0 0 0 0 0 0 0 0 0 0 0 0 0 0 0 0 0 0 0 0 0 0 0 0 0 0 0 0 0 0 0 0
0 0 0 0 0 0 0 0 0 0 0 0 0 0 0 0 0 0 0 0 0 0 0 0 0 0 0 0 0 0 0 0 0 0 0 0 0 0 0 0 0 0 0 0 0 0 0
0 0 0 0 0 0 0 0 0 0 0 0 0 0 0 0 0 0 0 0 0 0 0 0 0 0 0 0 0 0 0 0 0 0 0 0 0 0 0 0 0 0 0 0 0 0 0
0 0 0 0 0 0 0 0 0 0 0 0 0 0 0 0 0 0 0 0 0 0 0 0 0 0 0 0 0 0 0 0 0 0 0 0 0 0 0 0 0 0 0 0 0 0 0
0 0 0 0 0 0 0 0 0 0 0 0 0 0 0 0 0 0 0 0 0 0 0 0 0 0 0 0 0 0 0 0 0 0 0 0 0 0 0 0 0 0 0 0 0 0 0
0 0 0 0 0 0 0 0 0 0 0 0 0 0 0 0 0 0 0 0 0 0 0 0 0 0 0 0 0 0 0 0 0 0 0 0 0 0 0 0 0 0 0 0 0 0 0
Wind_Speed_500mb
49 46 44 45 44 42 42 40 34 32 29 31 39 37 36 35 33 36 36 33 23 12 10 7 6 7 10 10 19 1 4 13 38 43 41 36 32 19 10 15 24 11 17 40 58 60 48
49 46 45 44 42 42 42 41 37 33 32 28 29 37 38 38 37 35 37 38 35 12 8 8 5 7 10 7 12 9 4 16 31 40 38 40 25 23 14 19 16 18 37 45 55 61 46
50 50 46 40 41 41 41 41 39 37 35 35 32 32 37 39 41 40 37 38 36 15 11 9 9 11 19 27 14 9 6 11 20 29 37 45 25 17 3 12 19 35 10 16 27 41 19
49 52 45 42 39 40 40 40 41 40 39 38 38 36 37 39 42 44 41 35 32 14 14 12 13 14 19 9 22 23 17 15 17 24 32 20 15 34 25 14 14 5 6 5 12 12 22
48 48 45 43 41 42 41 43 45 48 46 45 44 44 43 44 43 45 45 38 28 18 16 15 11 11 21 22 33 36 26 21 25 21 20 14 21 7 7 7 10 10 5 10 15 13 6
44 48 49 46 44 42 42 42 45 48 45 46 47 48 50 47 49 45 45 38 24 20 15 11 13 11 24 19 35 37 38 30 28 24 33 22 3 5 7 8 10 10 6 11 13 9 8
42 48 50 50 47 45 44 44 43 42 44 47 48 50 49 48 48 54 45 26 10 8 25 25 16 21 4 10 14 33 38 40 43 37 11 6 6 12 20 15 13 11 10 17 19 22 8
42 47 50 51 50 48 45 45 46 46 47 47 46 46 49 49 49 53 41 20 18 8 18 37 45 48 43 26 9 27 42 27 16 9 9 1 16 19 18 14 15 18 20 22 17 21 14
41 47 52 52 50 49 47 47 49 51 51 52 47 46 49 52 52 31 20 24 24 28 9 19 45 49 38 19 14 32 46 41 8 12 12 15 17 21 22 23 19 19 18 12 14 13 5
42 48 54 54 53 52 51 51 51 54 53 52 50 46 46 55 20 10 13 30 21 10 5 10 18 16 23 19 10 28 49 43 9 19 12 12 25 23 13 16 17 27 13 14 9 4 11
42 51 56 52 51 53 53 53 55 56 57 55 54 47 45 44 34 16 13 20 5 13 2 11 15 12 24 29 7 19 33 27 18 12 13 15 3 5 5 8 2 12 10 8 5 7 3
45 54 57 54 54 55 53 54 55 57 57 55 52 44 48 27 24 5 6 11 19 5 10 11 14 13 15 15 4 11 25 20 10 7 3 12 15 7 11 7 6 13 4 9 8 7 1
48 56 61 57 59 55 56 54 55 57 57 55 54 48 30 21 8 2 8 7 8 3 10 11 10 13 17 14 12 12 14 12 10 9 9 7 16 10 14 11 4 7 10 6 7 6 10
50 56 60 62 61 59 56 54 55 57 59 53 52 35 18 13 17 5 7 8 6 10 11 15 14 24 15 12 9 23 17 10 10 8 5 6 8 4 6 11 14 13 15 10 10 7 8
55 58 63 67 68 65 63 56 55 58 57 56 51 27 23 13 32 14 6 3 8 7 8 9 2 13 15 15 10 11 18 22 15 19 13 7 10 5 3 13 2 6 5 11 7 3 4
56 59 62 65 67 67 66 57 55 56 56 54 51 32 17 21 34 23 7 8 9 10 6 9 6 12 12 3 9 10 13 5 8 9 9 5 3 3 8 10 5 9 4 2 6 3 8
57 61 58 64 65 67 64 53 51 55 56 44 34 19 7 25 36 12 6 9 14 19 2 5 2 6 11 6 8 5 11 10 8 7 14 4 7 8 7 2 2 10 6 7 5 9 8
48 54 60 60 65 66 63 49 46 48 56 38 13 5 26 37 8 7 6 5 9 31 17 2 5 10 8 8 7 6 10 3 8 3 6 2 7 3 8 12 3 5 2 7 8 7 4
49 47 57 67 70 66 56 40 40 40 44 51 34 14 26 39 3 5 4 6 4 8 9 5 9 10 5 5 8 8 11 4 12 8 8 1 4 5 15 7 11 11 5 5 7 4 11
45 53 61 65 64 56 44 35 34 34 34 38 13 6 6 35 11 4 3 6 1 13 12 11 7 10 8 6 8 5 8 4 10 11 14 13 5 11 11 3 2 6 13 7 7 6 5
53 59 59 51 46 39 36 33 31 30 26 29 7 5 9 5 4 14 6 6 4 8 7 11 12 15 8 6 4 7 10 10 16 14 10 8 8 2 5 9 7 11 21 24 20 14 17
44 44 43 43 40 37 34 32 28 27 23 8 8 7 16 8 21 14 5 3 3 8 5 7 12 11 16 10 6 5 5 3 4 2 6 8 6 5 5 13 16 19 27 29 32 30 30
41 40 40 38 39 37 30 29 26 22 18 7 10 8 8 9 7 4 9 5 7 10 19 23 13 12 16 6 9 9 5 7 8 10 5 7 9 5 7 6 12 17 14 13 15 21 17
43 38 39 37 35 36 30 26 24 19 16 8 6 13 7 6 5 6 16 15 14 7 11 10 19 10 6 5 16 19 23 27 21 13 17 12 10 5 5 5 5 12 16 19 19 8 8
46 39 39 37 31 33 31 26 20 20 16 13 7 8 6 5 8 12 23 8 20 19 13 22 23 17 8 8 7 10 7 3 10 16 16 14 10 5 4 6 11 13 6 8 7 2 3
47 44 38 37 28 27 27 25 16 20 16 13 7 10 5 1 2 12 5 14 6 6 10 16 19 15 9 6 5 0 4 4 6 4 6 12 7 7 6 7 10 11 8 11 2 6 7
45 42 37 33 26 26 23 18 14 17 17 13 12 4 5 4 1 11 8 5 7 6 7 8 7 9 10 4 4 2 6 6 2 11 7 6 3 19 14 8 10 9 14 3 3 7 27
42 41 34 30 25 23 20 15 15 16 13 10 7 9 5 7 18 11 1 4 7 8 6 5 6 8 6 5 4 1 2 5 5 6 8 10 9 6 4 3 13 10 13 4 6 12 8
41 38 31 26 19 18 17 13 10 8 7 8 4 3 7 9 12 16 15 11 12 4 6 6 12 4 4 5 5 4 4 5 3 4 5 2 9 6 11 10 8 12 7 6 7 8 13
Wind_Direction_500mb
346 345 347 345 345 348 346 344 337 336 338 334 331 335 337 340 342 343 343 344 342 318 312 303 284 263 253 244 244 238 25 180 182 188 199 200 192 191 186 199 228 181 254 257 258 258 260
343 341 343 343 342 344 346 344 341 337 336 336 332 327 332 333 333 334 335 335 335 281 272 290 293 265 236 251 196 189 307 193 191 192 200 200 198 214 261 217 156 234 233 251 260 257 254
342 342 343 339 340 339 343 344 343 340 337 335 333 333 327 326 325 325 327 329 333 285 244 241 270 274 263 236 204 206 303 206 195 197 192 188 201 245 257 315 302 259 252 268 254 247 239
338 340 341 336 334 335 336 336 338 337 334 330 330 329 327 324 322 319 317 320 321 291 257 261 248 260 254 155 179 183 144 157 160 165 172 186 243 261 244 261 329 351 98 278 274 214 233
337 341 340 340 334 331 332 329 328 327 325 324 324 324 323 320 321 318 311 309 304 281 259 262 242 250 264 195 213 193 179 172 156 179 211 224 262 194 167 83 360 9 243 260 281 209 233
339 340 340 338 334 330 326 325 323 325 321 318 317 318 319 317 319 318 310 303 288 271 245 226 207 289 241 208 211 206 208 203 203 214 238 214 153 75 39 93 210 225 231 271 252 264 190
342 340 338 337 334 334 333 334 330 327 329 324 319 316 317 314 316 317 314 306 256 217 215 214 199 231 223 16 224 195 195 210 225 201 169 208 104 210 221 202 206 234 237 251 268 268 211
342 340 342 342 340 337 336 337 337 334 331 330 325 320 316 313 316 310 301 265 213 99 280 256 248 256 253 273 292 193 187 197 191 175 154 322 222 224 227 234 229 242 250 265 276 268 192
339 342 343 343 341 338 336 335 335 334 334 333 330 324 320 316 316 300 293 295 267 261 276 263 229 229 235 226 220 202 185 199 158 165 182 185 231 206 230 255 249 243 219 233 216 279 214
340 343 343 341 339 336 333 332 332 332 332 332 329 324 322 322 323 302 339 15 350 184 9 266 186 230 205 183 232 216 190 192 192 195 212 212 244 238 258 242 257 255 249 228 252 320 270
339 341 339 337 337 335 330 329 328 328 328 330 327 325 320 321 300 280 348 9 58 152 335 176 152 182 179 171 163 209 201 192 184 199 132 236 200 141 185 212 56 238 323 284 264 248 85
339 342 341 336 335 334 331 328 325 325 325 327 325 322 316 306 284 319 346 71 129 56 255 180 143 163 130 196 212 148 165 204 175 155 233 228 271 212 207 254 234 278 330 21 51 101 359
340 344 346 341 336 331 331 328 326 325 324 325 320 322 298 276 194 99 7 72 67 200 291 146 162 149 158 178 223 186 163 142 151 130 233 296 250 247 201 249 311 187 64 342 345 340 218
336 336 339 342 339 335 330 328 326 326 325 324 318 321 256 264 184 152 127 63 162 280 272 235 173 150 181 161 219 180 141 167 233 157 115 185 320 202 183 191 206 181 153 157 217 215 247
326 328 328 331 336 335 331 328 325 326 327 327 324 319 265 199 182 169 133 120 216 241 300 4 108 169 209 169 163 148 179 191 194 189 169 164 217 345 47 336 118 333 130 192 107 54 96
315 316 320 324 330 333 334 327 325 325 329 334 327 321 265 177 165 167 99 238 232 282 356 37 356 8 140 196 81 21 161 46 85 53 139 219 309 345 6 19 19 114 268 1 27 233 254
307 310 317 317 325 327 332 327 327 326 331 339 328 320 140 171 163 176 183 230 282 281 101 100 24 44 63 105 128 61 353 37 50 51 73 83 107 290 55 155 230 7 23 30 110 141 199
310 312 313 311 319 321 326 324 327 329 332 343 352 296 179 156 120 192 203 238 351 311 278 251 110 68 76 53 75 102 150 69 85 83 78 37 125 249 240 277 53 162 48 88 137 265 211
310 307 304 309 311 316 321 319 324 330 340 341 326 278 179 184 180 243 231 345 282 238 329 57 55 77 87 114 95 81 107 177 92 77 135 103 46 35 339 36 21 68 75 130 114 113 214
309 305 305 304 310 315 320 316 318 326 332 335 306 315 297 208 251 287 240 201 120 214 245 71 105 79 74 69 44 131 109 62 108 109 122 86 122 157 197 219 74 315 321 292 211 217 222
303 301 307 316 318 319 320 314 315 321 326 324 256 267 9 338 314 324 281 188 195 171 54 48 48 53 110 96 57 85 43 22 29 101 59 93 171 336 280 295 330 295 298 289 262 236 227
326 326 325 323 322 322 320 316 312 323 329 309 312 357 341 308 325 336 298 198 127 84 67 67 99 95 64 82 39 79 109 126 187 25 74 350 134 113 263 268 282 286 266 261 263 256 264
326 325 326 325 323 321 320 322 314 321 339 305 343 294 303 306 331 321 317 301 120 115 53 88 96 92 63 42 4 331 286 227 200 146 125 122 131 107 255 47 344 298 256 249 250 246 249
330 329 326 324 324 325 324 318 318 309 325 325 329 338 329 295 356 346 330 352 112 65 122 56 72 89 138 334 311 294 262 250 225 210 153 143 142 129 242 44 215 247 315 280 252 84 79
336 329 323 324 324 327 329 325 311 304 298 296 307 326 331 293 334 328 356 5 95 78 79 72 66 91 52 29 32 351 354 68 240 213 183 149 131 145 198 200 299 302 36 3 348 102 21
332 330 322 324 327 327 327 325 314 311 290 283 249 260 269 302 4 322 329 16 62 58 55 102 77 61 64 82 84 125 259 278 153 110 237 143 122 149 176 187 226 234 355 321 131 255 343
327 328 325 326 326 324 323 322 295 302 304 284 238 275 253 288 278 32 35 3 30 46 97 61 30 44 46 58 82 175 264 302 235 147 153 134 118 217 208 229 268 260 315 76 182 237 319
330 330 327 328 327 326 324 312 291 298 300 295 270 267 269 255 282 296 291 64 53 57 119 185 73 1 34 74 169 219 24 280 37 160 174 187 174 204 159 220 266 355 322 163 213 232 220
334 330 330 328 330 332 337 341 339 323 291 292 291 279 267 268 268 274 256 251 246 121 132 122 120 108 50 86 23 47 304 345 37 281 346 182 185 182 192 219 244 316 239 225 275 262 263
Wind_Speed_850mb
49 46 44 45 44 42 42 40 34 32 29 31 39 37 36 35 33 36 36 33 23 12 10 7 6 7 10 10 19 1 4 13 38 43 41 36 32 19 10 15 24 11 17 40 58 60 48
49 46 45 44 42 42 42 41 37 33 32 28 29 37 38 38 37 35 37 38 35 12 8 8 5 7 10 7 12 9 4 16 31 40 38 40 25 23 14 19 16 18 37 45 55 61 46
50 50 46 40 41 41 41 41 39 37 35 35 32 32 37 39 41 40 37 38 36 15 11 9 9 11 19 27 14 9 6 11 20 29 37 45 25 17 3 12 19 35 10 16 27 41 19
49 52 45 42 39 40 40 40 41 40 39 38 38 36 37 39 42 44 41 35 32 14 14 12 13 14 19 9 22 23 17 15 17 24 32 20 15 34 25 14 14 5 6 5 12 12 22
48 48 45 43 41 42 41 43 45 48 46 45 44 44 43 44 43 45 45 38 28 18 16 15 11 11 21 22 33 36 26 21 25 21 20 14 21 7 7 7 10 10 5 10 15 13 6
44 48 49 46 44 42 42 42 45 48 45 46 47 48 50 47 49 45 45 38 24 20 15 11 13 11 24 19 35 37 38 30 28 24 33 22 3 5 7 8 10 10 6 11 13 9 8
42 48 50 50 47 45 44 44 43 42 44 47 48 50 49 48 48 54 45 26 10 8 25 25 16 21 4 10 14 33 38 40 43 37 11 6 6 12 20 15 13 11 10 17 19 22 8
42 47 50 51 50 48 45 45 46 46 47 47 46 46 49 49 49 53 41 20 18 8 18 37 45 48 43 26 9 27 42 27 16 9 9 1 16 19 18 14 15 18 20 22 17 21 14
41 47 52 52 50 49 47 47 49 51 51 52 47 46 49 52 52 31 20 24 24 28 9 19 45 49 38 19 14 32 46 41 8 12 12 15 17 21 22 23 19 19 18 12 14 13 5
42 48 54 54 53 52 51 51 51 54 53 52 50 46 46 55 20 10 13 30 21 10 5 10 18 16 23 19 10 28 49 43 9 19 12 12 25 23 13 16 17 27 13 14 9 4 11
42 51 56 52 51 53 53 53 55 56 57 55 54 47 45 44 34 16 13 20 5 13 2 11 15 12 24 29 7 19 33 27 18 12 13 15 3 5 5 8 2 12 10 8 5 7 3
45 54 57 54 54 55 53 54 55 57 57 55 52 44 48 27 24 5 6 11 19 5 10 11 14 13 15 15 4 11 25 20 10 7 3 12 15 7 11 7 6 13 4 9 8 7 1
48 56 61 57 59 55 56 54 55 57 57 55 54 48 30 21 8 2 8 7 8 3 10 11 10 13 17 14 12 12 14 12 10 9 9 7 16 10 14 11 4 7 10 6 7 6 10
50 56 60 62 61 59 56 54 55 57 59 53 52 35 18 13 17 5 7 8 6 10 11 15 14 24 15 12 9 23 17 10 10 8 5 6 8 4 6 11 14 13 15 10 10 7 8
55 58 63 67 68 65 63 56 55 58 57 56 51 27 23 13 32 14 6 3 8 7 8 9 2 13 15 15 10 11 18 22 15 19 13 7 10 5 3 13 2 6 5 11 7 3 4
56 59 62 65 67 67 66 57 55 56 56 54 51 32 17 21 34 23 7 8 9 10 6 9 6 12 12 3 9 10 13 5 8 9 9 5 3 3 8 10 5 9 4 2 6 3 8
57 61 58 64 65 67 64 53 51 55 56 44 34 19 7 25 36 12 6 9 14 19 2 5 2 6 11 6 8 5 11 10 8 7 14 4 7 8 7 2 2 10 6 7 5 9 8
48 54 60 60 65 66 63 49 46 48 56 38 13 5 26 37 8 7 6 5 9 31 17 2 5 10 8 8 7 6 10 3 8 3 6 2 7 3 8 12 3 5 2 7 8 7 4
49 47 57 67 70 66 56 40 40 40 44 51 34 14 26 39 3 5 4 6 4 8 9 5 9 10 5 5 8 8 11 4 12 8 8 1 4 5 15 7 11 11 5 5 7 4 11
45 53 61 65 64 56 44 35 34 34 34 38 13 6 6 35 11 4 3 6 1 13 12 11 7 10 8 6 8 5 8 4 10 11 14 13 5 11 11 3 2 6 13 7 7 6 5
53 59 59 51 46 39 36 33 31 30 26 29 7 5 9 5 4 14 6 6 4 8 7 11 12 15 8 6 4 7 10 10 16 14 10 8 8 2 5 9 7 11 21 24 20 14 17
44 44 43 43 40 37 34 32 28 27 23 8 8 7 16 8 21 14 5 3 3 8 5 7 12 11 16 10 6 5 5 3 4 2 6 8 6 5 5 13 16 19 27 29 32 30 30
41 40 40 38 39 37 30 29 26 22 18 7 10 8 8 9 7 4 9 5 7 10 19 23 13 12 16 6 9 9 5 7 8 10 5 7 9 5 7 6 12 17 14 13 15 21 17
43 38 39 37 35 36 30 26 24 19 16 8 6 13 7 6 5 6 16 15 14 7 11 10 19 10 6 5 16 19 23 27 21 13 17 12 10 5 5 5 5 12 16 19 19 8 8
46 39 39 37 31 33 31 26 20 20 16 13 7 8 6 5 8 12 23 8 20 19 13 22 23 17 8 8 7 10 7 3 10 16 16 14 10 5 4 6 11 13 6 8 7 2 3
47 44 38 37 28 27 27 25 16 20 16 13 7 10 5 1 2 12 5 14 6 6 10 16 19 15 9 6 5 0 4 4 6 4 6 12 7 7 6 7 10 11 8 11 2 6 7
45 42 37 33 26 26 23 18 14 17 17 13 12 4 5 4 1 11 8 5 7 6 7 8 7 9 10 4 4 2 6 6 2 11 7 6 3 19 14 8 10 9 14 3 3 7 27
42 41 34 30 25 23 20 15 15 16 13 10 7 9 5 7 18 11 1 4 7 8 6 5 6 8 6 5 4 1 2 5 5 6 8 10 9 6 4 3 13 10 13 4 6 12 8
41 38 31 26 19 18 17 13 10 8 7 8 4 3 7 9 12 16 15 11 12 4 6 6 12 4 4 5 5 4 4 5 3 4 5 2 9 6 11 10 8 12 7 6 7 8 13
Wind_Direction_850mb
346 345 347 345 345 348 346 344 337 336 338 334 331 335 337 340 342 343 343 344 342 318 312 303 284 263 253 244 244 238 25 180 182 188 199 200 192 191 186 199 228 181 254 257 258 258 260
343 341 343 343 342 344 346 344 341 337 336 336 332 327 332 333 333 334 335 335 335 281 272 290 293 265 236 251 196 189 307 193 191 192 200 200 198 214 261 217 156 234 233 251 260 257 254
342 342 343 339 340 339 343 344 343 340 337 335 333 333 327 326 325 325 327 329 333 285 244 241 270 274 263 236 204 206 303 206 195 197 192 188 201 245 257 315 302 259 252 268 254 247 239
338 340 341 336 334 335 336 336 338 337 334 330 330 329 327 324 322 319 317 320 321 291 257 261 248 260 254 155 179 183 144 157 160 165 172 186 243 261 244 261 329 351 98 278 274 214 233
337 341 340 340 334 331 332 329 328 327 325 324 324 324 323 320 321 318 311 309 304 281 259 262 242 250 264 195 213 193 179 172 156 179 211 224 262 194 167 83 360 9 243 260 281 209 233
339 340 340 338 334 330 326 325 323 325 321 318 317 318 319 317 319 318 310 303 288 271 245 226 207 289 241 208 211 206 208 203 203 214 238 214 153 75 39 93 210 225 231 271 252 264 190
342 340 338 337 334 334 333 334 330 327 329 324 319 316 317 314 316 317 314 306 256 217 215 214 199 231 223 16 224 195 195 210 225 201 169 208 104 210 221 202 206 234 237 251 268 268 211
342 340 342 342 340 337 336 337 337 334 331 330 325 320 316 313 316 310 301 265 213 99 280 256 248 256 253 273 292 193 187 197 191 175 154 322 222 224 227 234 229 242 250 265 276 268 192
339 342 343 343 341 338 336 335 335 334 334 333 330 324 320 316 316 300 293 295 267 261 276 263 229 229 235 226 220 202 185 199 158 165 182 185 231 206 230 255 249 243 219 233 216 279 214
340 343 343 341 339 336 333 332 332 332 332 332 329 324 322 322 323 302 339 15 350 184 9 266 186 230 205 183 232 216 190 192 192 195 212 212 244 238 258 242 257 255 249 228 252 320 270
339 341 339 337 337 335 330 329 328 328 328 330 327 325 320 321 300 280 348 9 58 152 335 176 152 182 179 171 163 209 201 192 184 199 132 236 200 141 185 212 56 238 323 284 264 248 85
339 342 341 336 335 334 331 328 325 325 325 327 325 322 316 306 284 319 346 71 129 56 255 180 143 163 130 196 212 148 165 204 175 155 233 228 271 212 207 254 234 278 330 21 51 101 359
340 344 346 341 336 331 331 328 326 325 324 325 320 322 298 276 194 99 7 72 67 200 291 146 162 149 158 178 223 186 163 142 151 130 233 296 250 247 201 249 311 187 64 342 345 340 218
336 336 339 342 339 335 330 328 326 326 325 324 318 321 256 264 184 152 127 63 162 280 272 235 173 150 181 161 219 180 141 167 233 157 115 185 320 202 183 191 206 181 153 157 217 215 247
326 328 328 331 336 335 331 328 325 326 327 327 324 319 265 199 182 169 133 120 216 241 300 4 108 169 209 169 163 148 179 191 194 189 169 164 217 345 47 336 118 333 130 192 107 54 96
315 316 320 324 330 333 334 327 325 325 329 334 327 321 265 177 165 167 99 238 232 282 356 37 356 8 140 196 81 21 161 46 85 53 139 219 309 345 6 19 19 114 268 1 27 233 254
307 310 317 317 325 327 332 327 327 326 331 339 328 320 140 171 163 176 183 230 282 281 101 100 24 44 63 105 128 61 353 37 50 51 73 83 107 290 55 155 230 7 23 30 110 141 199
310 312 313 311 319 321 326 324 327 329 332 343 352 296 179 156 120 192 203 238 351 311 278 251 110 68 76 53 75 102 150 69 85 83 78 37 125 249 240 277 53 162 48 88 137 265 211
310 307 304 309 311 316 321 319 324 330 340 341 326 278 179 184 180 243 231 345 282 238 329 57 55 77 87 114 95 81 107 177 92 77 135 103 46 35 339 36 21 68 75 130 114 113 214
309 305 305 304 310 315 320 316 318 326 332 335 306 315 297 208 251 287 240 201 120 214 245 71 105 79 74 69 44 131 109 62 108 109 122 86 122 157 197 219 74 315 321 292 211 217 222
303 301 307 316 318 319 320 314 315 321 326 324 256 267 9 338 314 324 281 188 195 171 54 48 48 53 110 96 57 85 43 22 29 101 59 93 171 336 280 295 330 295 298 289 262 236 227
326 326 325 323 322 322 320 316 312 323 329 309 312 357 341 308 325 336 298 198 127 84 67 67 99 95 64 82 39 79 109 126 187 25 74 350 134 113 263 268 282 286 266 261 263 256 264
326 325 326 325 323 321 320 322 314 321 339 305 343 294 303 306 331 321 317 301 120 115 53 88 96 92 63 42 4 331 286 227 200 146 125 122 131 107 255 47 344 298 256 249 250 246 249
330 329 326 324 324 325 324 318 318 309 325 325 329 338 329 295 356 346 330 352 112 65 122 56 72 89 138 334 311 294 262 250 225 210 153 143 142 129 242 44 215 247 315 280 252 84 79
336 329 323 324 324 327 329 325 311 304 298 296 307 326 331 293 334 328 356 5 95 78 79 72 66 91 52 29 32 351 354 68 240 213 183 149 131 145 198 200 299 302 36 3 348 102 21
332 330 322 324 327 327 327 325 314 311 290 283 249 260 269 302 4 322 329 16 62 58 55 102 77 61 64 82 84 125 259 278 153 110 237 143 122 149 176 187 226 234 355 321 131 255 343
327 328 325 326 326 324 323 322 295 302 304 284 238 275 253 288 278 32 35 3 30 46 97 61 30 44 46 58 82 175 264 302 235 147 153 134 118 217 208 229 268 260 315 76 182 237 319
330 330 327 328 327 326 324 312 291 298 300 295 270 267 269 255 282 296 291 64 53 57 119 185 73 1 34 74 169 219 24 280 37 160 174 187 174 204 159 220 266 355 322 163 213 232 220
334 330 330 328 330 332 337 341 339 323 291 292 291 279 267 268 268 274 256 251 246 121 132 122 120 108 50 86 23 47 304 345 37 281 346 182 185 182 192 219 244 316 239 225 275 262 263